This is the latest recevied weather packets stored in our database for station/object DK9XR-14. If no packets are shown the sender has not sent any weather packets the latest 10 day(s).
| Time | Temp. | Humidity | Pressure | Rain* | Wind** | Luminosity | Snow |
|---|---|---|---|---|---|---|---|
| 1777814189 | 25° C | 26% | 1014.8 hPa | 0 mm | - | - | - |
| 1777813890 | 24.44° C | 28% | 1014.9 hPa | 0 mm | - | - | - |
| 1777813589 | 25° C | 27% | 1014.9 hPa | 0 mm | - | - | - |
| 1777813291 | 25° C | 27% | 1014.9 hPa | 0 mm | - | - | - |
| 1777812990 | 25.56° C | 29% | 1015 hPa | 0 mm | - | - | - |
| 1777812687 | 25° C | 28% | 1015 hPa | 0 mm | - | - | - |
| 1777812389 | 25° C | 30% | 1015 hPa | 0 mm | - | - | - |
| 1777812088 | 25° C | 32% | 1015.1 hPa | 0 mm | - | - | - |
| 1777811784 | 24.44° C | 31% | 1015.1 hPa | 0 mm | - | - | - |
| 1777811483 | 24.44° C | 29% | 1015.2 hPa | 0 mm | - | - | - |
| 1777811186 | 25° C | 30% | 1015.2 hPa | 0 mm | - | - | - |
| 1777810883 | 24.44° C | 31% | 1015.2 hPa | 0 mm | - | - | - |
| 1777810581 | 24.44° C | 31% | 1015.4 hPa | 0 mm | - | - | - |
| 1777810284 | 23.89° C | 29% | 1015.4 hPa | 0 mm | - | - | - |
| 1777809980 | 23.89° C | 31% | 1015.5 hPa | 0 mm | - | - | - |
| 1777809680 | 24.44° C | 31% | 1015.5 hPa | 0 mm | - | - | - |
| 1777809377 | 23.89° C | 33% | 1015.6 hPa | 0 mm | - | - | - |
| 1777809078 | 23.89° C | 31% | 1015.7 hPa | 0 mm | - | - | - |
| 1777808777 | 23.33° C | 35% | 1015.7 hPa | 0 mm | - | - | - |
| 1777808478 | 23.33° C | 33% | 1015.7 hPa | 0 mm | - | - | - |
| 1777808176 | 23.89° C | 34% | 1015.7 hPa | 0 mm | - | - | - |
| 1777807875 | 23.89° C | 34% | 1015.7 hPa | 0 mm | - | - | - |
| 1777807572 | 23.89° C | 34% | 1015.7 hPa | 0 mm | - | - | - |
| 1777807271 | 23.89° C | 34% | 1015.7 hPa | 0 mm | - | - | - |
| 1777806968 | 23.89° C | 34% | 1015.7 hPa | 0 mm | - | - | - |
* Rain latest hour (hover to see other rain measurements)
** Current wind speed in m/s (hover to see current wind gust speed)